SCP
0 0 0 0 0 0 0 0 0 0 0 0 0 0 0 0 0 0 0 0 0 0 0 0 0 0 0 0 0 0 0 0 0 0 0 0 0 0 0 0 0 0 0
0 0 0 0 0 0 0 0 0 0 0 0 0 0 0 0 0 0 0 0 0 0 0 0 0 0 0 0 0 0 0 0 0 0 0 0 0 0 0 0 0 0 0
0 0 0 0 0 0 0 0 0 0 0 0 0 0 0 0 0 0 0 0 0 0 0 0 0 0 0 0 0 0 0 0 0 0 0 0 0 0 0 0 0 0 0
0 0 0 0 0 0 0 0 0 0 0 0 0 0 0 0 0 0 0 0 0 0 0 0 0 0 0 0 0 0 0 0 0 0 0 0 0 0 0 0 0 0 0
0 0 0 0 0 0 0 0 0 0 0 0 0 0 0 0 0 0 0 0 0 0 0 0 0 0 0 0 0 0 0 0 0 0 0 0 0 0 0 0 0 0 0
0 0 0 0 0 0 0 0 0 0 0 0 0 0 0 0 0 0 0 0 0 0 0 0 0 0 0 0 0 0 0 0 0 0 0 0 0 0 0 0 0 0 0
0 0 0 0 0 0 0 0 0 0 0 0 0 0 0 0 0 0 0 0 0 0 0 0 0 0 0 0 0 0 0 0 0 0 0 0 0 0 0 0 0 0 0
0 0 0 0 0 0 0 0 0 0 0 0 0 0 0 0 0 0 0 0 0 0 0 0 0 0 0 0 0 0 0 0 0 0 0 0 0 0 0 0 0 0 0
0 0 0 0 0 0 0 0 0 0 1 1 1 1 1 0 0 0 0 0 0 0 0 0 0 0 0 0 0 0 0 0 0 0 0 0 0 0 0 0 0 0 0
0 0 0 0 0 0 0 0 0 1 1 1 1 1 1 0 0 0 0 0 0 0 0 0 0 0 0 0 0 0 0 0 0 0 0 0 0 0 0 0 0 0 0
0 0 0 0 0 0 0 0 1 1 1 1 1 1 0 0 0 0 0 0 0 0 0 0 0 0 0 0 0 0 0 0 0 0 0 0 0 0 0 0 0 0 0
0 0 0 1 1 1 1 1 1 1 1 1 1 1 1 0 0 0 0 0 0 0 0 0 0 0 0 0 0 0 0 0 0 0 0 0 0 0 0 0 0 0 0
1 1 1 1 1 1 1 1 1 1 1 1 1 1 1 1 0 0 0 0 0 0 0 0 0 0 1 1 0 0 0 0 0 0 0 0 0 0 0 0 0 0 0
1 1 1 1 1 1 1 1 1 1 1 1 1 1 1 1 0 0 0 0 0 0 1 1 1 1 1 1 1 0 0 0 0 0 0 0 0 0 0 0 0 0 0
1 1 1 1 1 1 1 1 1 1 1 1 1 1 1 1 1 1 1 1 1 1 1 1 1 1 1 0 1 1 1 0 0 0 0 0 0 0 0 0 0 0 0
1 1 1 1 1 1 1 1 1 1 1 1 1 1 1 1 1 1 1 1 1 1 1 1 1 1 1 0 0 0 1 1 0 0 0 0 0 0 0 0 0 0 0
1 1 1 1 1 1 1 1 1 1 1 1 1 1 1 1 1 1 1 1 1 1 1 1 1 1 0 0 0 0 0 1 1 0 0 0 0 0 0 0 0 0 0
2 1 1 1 1 1 1 1 1 1 1 1 1 1 1 1 1 1 1 1 1 1 1 1 1 1 1 0 0 0 0 1 1 1 0 0 0 0 0 0 0 0 0
1 1 1 1 1 1 1 1 1 1 1 1 1 1 1 1 1 1 1 1 1 1 1 1 1 1 1 0 0 0 0 1 1 0 0 0 0 0 0 0 0 0 0
1 1 1 1 1 1 1 1 1 1 1 1 1 1 1 1 1 1 1 1 1 1 1 1 1 1 1 0 0 0 1 1 1 0 0 0 0 0 0 0 0 0 0
1 1 1 1 1 1 1 1 1 1 1 1 1 1 1 1 1 1 1 1 1 1 1 1 1 1 1 0 0 0 0 1 1 0 0 0 0 0 0 0 0 0 0
1 1 1 1 1 1 1 1 1 1 1 1 1 1 1 1 1 1 1 1 1 1 1 1 1 1 1 0 0 0 0 0 0 0 0 0 0 0 0 0 0 0 0
1 1 1 1 1 1 1 1 1 1 1 1 1 1 1 1 1 1 1 1 1 1 1 1 1 1 1 0 0 0 0 0 0 0 0 0 0 0 0 0 0 0 0
1 1 1 1 1 1 1 1 1 1 1 1 1 1 1 1 1 1 1 1 1 1 1 1 1 1 0 0 0 0 0 0 0 0 0 0 0 0 0 0 0 0 0
1 1 1 1 1 1 1 1 1 1 1 1 1 1 1 1 1 0 0 0 0 0 0 0 0 0 0 0 0 0 0 0 0 0 0 0 0 0 0 0 0 0 0
1 1 1 1 1 1 1 1 1 1 1 1 1 1 1 1 0 0 0 0 0 0 0 0 0 0 0 0 0 0 0 0 0 0 0 0 0 0 0 0 0 0 0
Wind_Speed
8 8 7 6 6 5 5 4 4 3 3 2 2 2 2 1 1 1 1 1 1 1 1 1 1 1 0 1 1 1 1 1 1 1 2 2 2 1 1 2 2 2 3
9 8 8 7 7 6 6 6 5 5 4 2 2 1 1 1 1 0 1 1 2 2 2 1 1 1 1 1 1 2 2 1 1 2 2 2 2 2 1 2 2 1 2
10 10 9 9 8 8 7 6 6 5 5 4 3 2 2 3 2 2 2 1 1 1 1 2 2 1 2 1 2 2 2 2 2 2 2 1 1 1 2 1 1 0 0
10 10 10 10 9 8 8 7 6 6 5 5 4 4 3 2 1 1 1 1 1 2 2 2 2 2 2 1 3 2 2 3 2 1 2 2 2 1 1 1 1 1 0
11 10 10 10 9 8 8 7 7 6 6 5 4 4 4 2 2 1 1 2 2 2 3 2 2 2 2 2 2 1 2 2 2 2 2 2 2 3 2 1 1 1 0
11 10 9 9 8 8 8 8 7 7 6 6 5 5 4 3 3 3 2 2 2 2 3 3 3 3 3 2 2 3 3 2 2 3 2 2 2 2 2 2 2 1 0
12 11 10 9 9 9 9 8 8 7 7 6 6 5 5 4 4 4 3 3 2 2 2 2 2 3 2 3 3 3 2 3 3 3 3 2 3 2 2 2 2 1 2
11 11 11 10 10 10 9 9 8 8 7 7 6 5 5 4 3 3 3 2 2 1 0 2 2 3 3 3 2 3 3 2 3 3 3 2 2 2 2 3 2 2 2
11 11 11 11 10 11 11 10 10 9 8 7 6 5 4 3 2 2 3 2 1 1 1 2 2 2 2 2 2 2 2 2 2 2 2 2 2 2 2 2 3 3 3
10 11 10 10 10 9 10 9 9 8 7 7 6 5 5 4 3 2 1 1 0 1 1 1 2 2 1 1 2 1 1 1 1 1 1 2 2 1 2 2 3 3 3
9 10 9 9 9 9 9 9 8 8 7 6 6 5 5 4 4 3 2 2 1 1 1 2 2 2 2 1 1 1 1 1 1 1 1 2 2 2 2 2 2 2 2
7 9 9 9 9 9 9 8 8 8 7 7 6 5 4 4 4 3 3 3 2 1 1 2 2 2 2 1 1 1 1 1 1 2 1 2 1 1 2 1 2 1 1
7 8 8 9 8 8 8 8 7 7 7 7 6 5 4 4 3 2 2 2 2 2 2 2 2 2 1 1 1 1 1 1 1 2 1 1 1 1 0 1 1 1 1
7 7 7 7 7 7 7 7 7 6 6 6 6 5 4 4 3 3 2 2 2 2 1 1 1 1 1 1 0 0 0 1 2 2 2 2 1 1 1 1 1 1 1
7 7 7 7 7 7 7 6 6 6 6 5 5 4 4 4 3 3 2 2 2 2 1 1 1 0 0 0 0 1 1 1 2 2 2 3 4 6 4 3 2 1 1
6 7 7 7 7 7 6 6 6 5 6 5 5 4 4 4 3 3 3 3 3 2 2 2 1 1 1 4 4 1 1 1 1 1 1 2 3 4 5 5 6 5 3
6 6 6 6 6 6 6 6 6 6 6 6 5 4 4 4 4 3 3 3 3 3 2 2 2 3 3 4 4 2 1 1 1 2 2 1 3 2 3 4 3 3 4
5 6 6 6 6 6 6 6 7 6 5 5 5 4 4 4 4 4 3 3 3 3 3 3 3 2 3 3 2 2 1 1 2 2 2 2 3 4 3 2 3 4 4
5 6 6 6 6 6 6 7 7 6 6 5 4 4 4 4 4 4 4 4 3 3 3 3 3 3 3 4 3 1 2 2 2 3 3 3 3 4 3 2 3 3 3
5 6 6 6 6 6 6 7 7 7 6 5 4 4 4 4 4 5 4 4 4 4 3 3 3 3 2 4 3 1 1 2 2 3 4 5 4 5 4 2 2 2 2
7 7 6 5 5 5 6 7 7 6 6 5 5 4 4 4 5 4 4 4 4 4 3 3 3 3 3 5 5 3 1 1 2 2 3 4 7 5 4 3 2 2 2
7 7 6 5 5 5 6 7 6 6 6 6 6 5 4 3 4 5 4 4 4 4 4 3 2 3 4 4 5 4 4 4 3 3 3 5 6 5 4 3 3 2 2
7 6 7 6 5 5 5 7 6 6 6 6 6 5 5 4 4 4 4 3 3 2 2 2 2 3 3 4 5 5 4 4 3 4 6 5 4 3 3 3 1 1 1
6 6 7 7 6 5 5 6 6 6 7 7 6 5 5 5 4 3 2 2 2 2 2 2 2 2 2 2 3 4 4 5 4 4 5 5 3 2 2 2 1 1 2
6 6 6 6 6 6 6 6 6 7 7 7 6 5 5 5 5 4 4 3 4 4 2 1 2 2 2 4 5 3 2 2 3 2 2 2 2 2 2 1 2 1 1
6 6 6 6 6 6 6 5 6 6 7 6 6 4 4 4 4 5 5 10 7 9 8 7 4 5 6 5 5 6 6 4 2 1 1 2 1 1 2 1 1 1 1
Wind_Direction
183 183 185 188 185 184 187 190 197 191 206 208 212 196 186 193 179 176 167 196 220 211 254 281 168 233 192 248 227 237 201 213 194 210 171 148 147 142 177 201 203 181 189
186 185 189 192 194 191 193 192 195 195 206 204 234 234 260 241 218 205 141 223 233 244 230 242 239 205 191 206 226 242 253 224 215 258 237 186 163 164 137 172 191 196 194
194 190 191 196 197 196 196 197 197 194 202 199 204 199 204 226 203 192 188 217 241 249 270 258 263 249 232 195 210 225 245 257 236 266 285 276 163 145 137 117 112 98 357
197 195 194 196 200 199 194 195 192 193 193 196 209 214 229 242 251 246 195 206 242 253 249 252 246 250 252 222 231 197 236 258 256 225 271 302 339 263 170 169 123 108 131
196 196 197 195 197 196 190 187 188 190 191 196 196 214 229 229 224 229 209 255 245 251 254 244 241 239 246 248 267 250 251 245 266 270 255 239 222 244 237 221 188 163 88
196 194 193 190 193 190 188 185 181 189 189 195 199 211 226 238 245 245 239 233 223 231 242 243 242 244 248 235 240 242 231 251 263 272 264 251 246 237 234 228 221 192 151
194 192 190 187 188 190 190 187 181 187 190 197 206 208 217 224 231 241 227 247 243 225 218 245 243 251 242 236 238 233 246 235 235 248 260 268 272 279 271 249 240 220 184
189 189 186 184 186 189 190 188 184 188 190 194 200 205 210 223 228 233 256 236 255 265 270 257 250 249 246 241 236 237 229 227 239 251 265 269 273 273 262 259 258 244 214
183 184 183 182 184 185 188 189 185 187 188 191 189 192 196 213 227 219 231 237 237 250 238 259 257 245 235 240 248 261 255 238 253 256 243 262 274 277 283 267 254 260 256
179 179 181 180 180 180 180 183 183 182 183 183 187 180 187 189 190 202 203 247 252 285 284 271 266 263 253 237 243 248 249 249 260 278 301 289 281 281 277 270 259 258 268
174 173 174 173 172 173 173 175 177 172 174 179 180 185 181 181 183 187 188 198 206 214 226 260 259 248 243 243 227 267 252 247 275 263 250 271 301 288 274 263 263 259 253
162 160 162 163 166 168 168 167 170 172 173 173 175 177 176 178 185 189 194 192 187 210 224 241 241 241 235 229 232 258 272 271 287 294 292 286 275 261 291 286 268 258 260
150 149 151 155 161 163 163 163 166 170 169 168 168 168 175 185 194 194 193 182 176 195 208 220 237 247 234 206 237 253 271 318 336 329 315 306 319 292 338 299 283 255 211
147 148 147 150 153 155 158 159 163 164 162 164 167 166 174 181 181 181 175 170 178 186 186 200 221 227 219 194 172 218 356 25 15 17 17 18 14 11 326 285 299 287 229
145 148 148 144 147 148 148 148 152 154 155 158 162 164 166 163 165 163 162 165 168 173 166 165 137 132 160 62 106 140 105 75 57 50 51 60 56 43 21 4 7 346 284
143 143 142 142 145 146 145 145 145 147 149 150 151 154 158 154 152 151 156 158 154 147 135 127 124 107 71 59 56 13 65 81 63 45 55 96 97 86 75 52 38 23 350
142 136 135 139 142 142 147 146 144 146 149 150 148 153 157 150 143 148 149 152 151 141 127 117 109 97 71 66 79 59 349 71 48 32 24 22 67 82 92 102 114 73 46
137 132 131 133 132 129 136 141 139 142 144 144 144 156 158 155 152 151 145 136 129 126 122 117 114 105 70 62 75 88 125 71 63 56 40 45 57 42 34 74 76 68 54
136 130 125 126 125 126 132 135 135 136 136 135 141 148 154 150 146 141 133 130 127 123 122 119 109 96 72 52 43 55 126 105 88 74 62 62 77 46 35 81 81 74 82
125 120 116 117 121 124 129 131 127 126 127 126 129 132 139 142 136 130 128 127 129 126 126 110 97 91 71 67 59 12 131 103 103 104 97 75 54 55 44 79 86 74 47
118 116 116 116 117 122 130 130 125 125 125 123 124 121 120 127 125 124 124 130 130 121 115 109 107 93 70 84 69 27 359 82 111 97 84 72 67 61 41 22 45 36 328
121 120 118 112 114 122 129 128 125 126 125 124 122 115 113 118 119 117 121 128 135 134 127 122 115 101 92 75 79 63 26 4 66 66 73 83 89 79 57 44 32 352 301
127 127 123 119 119 123 129 126 126 133 132 127 122 118 114 107 108 117 125 137 145 144 136 134 123 106 98 101 102 104 82 50 60 69 68 78 101 114 96 77 38 322 347
133 134 132 129 125 125 125 123 131 137 133 131 128 127 126 119 105 103 111 108 103 111 114 121 117 109 105 97 112 126 129 130 122 110 111 124 120 115 93 110 119 52 21
139 140 138 135 134 131 126 126 130 134 133 132 132 132 126 116 104 85 53 59 55 38 25 70 98 99 96 61 37 31 74 76 82 104 121 104 97 95 84 68 46 27 14
145 144 139 137 137 137 133 131 135 140 141 141 142 140 136 129 128 118 94 56 56 59 51 37 35 68 73 90 78 69 64 61 53 108 118 97 74 53 44 39 50 51 28